TimeCST,TemperatureF,Dew PointF,Humidity,Sea Level PressureIn,VisibilityMPH,Wind Direction,Wind SpeedMPH,Gust SpeedMPH,PrecipitationIn,Events,Conditions,WindDirDegrees,DateUTC
12:53 AM,21.9,16.0,78,30.33,10.0,NE,3.5,-,N/A,,Clear,40,2013-01-22 06:53:00
1:53 AM,21.9,16.0,78,30.31,10.0,ENE,3.5,-,N/A,,Clear,70,2013-01-22 07:53:00
2:53 AM,21.9,16.0,78,30.30,10.0,East,3.5,-,N/A,,Clear,100,2013-01-22 08:53:00
3:53 AM,21.9,16.0,78,30.30,10.0,ENE,4.6,-,N/A,,Clear,70,2013-01-22 09:53:00
4:53 AM,21.9,15.1,75,30.30,10.0,ENE,4.6,-,N/A,,Clear,60,2013-01-22 10:53:00
5:53 AM,21.9,15.1,75,30.31,10.0,East,4.6,-,N/A,,Clear,90,2013-01-22 11:53:00
6:53 AM,21.9,15.1,75,30.32,10.0,East,4.6,-,N/A,,Clear,100,2013-01-22 12:53:00
7:53 AM,21.9,15.1,75,30.33,10.0,ESE,3.5,-,N/A,,Clear,110,2013-01-22 13:53:00
8:53 AM,26.1,18.0,71,30.34,10.0,East,4.6,-,N/A,,Partly Cloudy,100,2013-01-22 14:53:00
9:53 AM,30.0,19.9,66,30.33,10.0,SSE,6.9,-,N/A,,Scattered Clouds,150,2013-01-22 15:53:00
10:53 AM,35.1,21.0,57,30.31,10.0,South,9.2,-,N/A,,Scattered Clouds,190,2013-01-22 16:53:00
11:53 AM,37.9,21.9,53,30.33,10.0,SSW,3.5,-,N/A,,Overcast,210,2013-01-22 17:53:00
12:53 PM,41.0,23.0,49,30.29,10.0,Variable,4.6,-,N/A,,Partly Cloudy,0,2013-01-22 18:53:00
1:53 PM,43.0,24.1,47,30.25,10.0,SSW,5.8,-,N/A,,Clear,200,2013-01-22 19:53:00
2:53 PM,45.0,24.1,44,30.25,10.0,Variable,4.6,-,N/A,,Clear,0,2013-01-22 20:53:00
3:53 PM,44.1,24.1,45,30.24,10.0,South,5.8,-,N/A,,Partly Cloudy,180,2013-01-22 21:53:00
4:53 PM,43.0,24.1,47,30.22,10.0,South,10.4,-,N/A,,Clear,190,2013-01-22 22:53:00
5:53 PM,37.9,24.1,57,30.23,10.0,South,6.9,-,N/A,,Clear,190,2013-01-22 23:53:00
6:53 PM,37.0,23.0,57,30.24,10.0,South,4.6,-,N/A,,Clear,190,2013-01-23 00:53:00
7:53 PM,34.0,23.0,64,30.25,10.0,South,5.8,-,N/A,,Clear,180,2013-01-23 01:53:00
8:53 PM,33.1,23.0,66,30.25,10.0,South,4.6,-,N/A,,Clear,170,2013-01-23 02:53:00
9:53 PM,32.0,21.9,66,30.26,10.0,South,5.8,-,N/A,,Clear,170,2013-01-23 03:53:00
10:53 PM,30.9,21.9,69,30.26,10.0,South,3.5,-,N/A,,Clear,170,2013-01-23 04:53:00
11:53 PM,28.9,21.9,75,30.27,10.0,SSE,4.6,-,N/A,,Clear,160,2013-01-23 05:53:00